CW5302 Weather Reports


Display with metric or nautical units.
time (UTC)temp
F
wind
direction
speed
MPH
gust
MPH
rain 1hr
in
rain 24hr
in
rain mn
in
humidity
%
barometer
mb
20260504005318 81 109 2.0 6.0 0.00 0.00 0.00 49 1003.5
20260504004321 82 126 0.0 3.0 0.00 0.00 0.00 53 1003.5
20260504003328 83 126 0.0 0.0 0.00 0.00 0.00 47 1003.5
20260504002322 83 126 0.0 0.0 0.00 0.00 0.00 45 1003.5
20260504001316 83 126 0.0 4.0 0.00 0.00 0.00 43 1003.4
20260504000325 84 94 0.0 4.0 0.00 0.00 0.00 44 1003.4
20260503235336 85 107 1.0 4.0 0.00 0.00 0.00 43 1003.4
20260503234347 85 275 0.0 0.0 0.00 0.00 0.00 38 1003.5
20260503233321 86 275 0.0 1.0 0.00 0.00 0.00 38 1003.5
20260503232318 87 275 0.0 0.0 0.00 0.00 0.00 44 1003.5
20260503231329 88 275 0.0 2.0 0.00 0.00 0.00 36 1003.6
20260503230321 87 275 1.0 3.0 0.00 0.00 0.00 37 1003.6
20260503225333 86 14 0.0 3.0 0.00 0.00 0.00 41 1003.9
20260503224326 85 19 0.0 4.0 0.00 0.00 0.00 38 1004.1
20260503223337 85 5 0.0 2.0 0.00 0.00 0.00 43 1004.1
20260503222347 85 355 0.0 4.0 0.00 0.00 0.00 48 1004.1
20260503221319 85 5 0.0 1.0 0.00 0.00 0.00 46 1004.4
20260503220350 84 5 0.0 3.0 0.00 0.00 0.00 44 1004.4
20260503215320 83 186 1.0 5.0 0.00 0.00 0.00 47 1004.6
20260503214356 83 242 1.0 4.0 0.00 0.00 0.00 47 1005.0
20260503213328 82 242 1.0 5.0 0.00 0.00 0.00 46 1005.0
20260503212318 81 341 0.0 3.0 0.00 0.00 0.00 46 1005.3
20260503211348 80 347 1.0 5.0 0.00 0.00 0.00 47 1005.5
20260503210319 80 226 0.0 5.0 0.00 0.00 0.00 46 1005.5
20260503205329 80 216 2.0 5.0 0.00 0.00 0.00 47 1005.6
20260503204319 78 293 2.0 5.0 0.00 0.00 0.00 45 1005.7
20260503203317 78 285 0.0 4.0 0.00 0.00 0.00 53 1005.7
20260503202332 77 288 1.0 6.0 0.00 0.00 0.00 49 1006.1
20260503201346 75 278 0.0 4.0 0.00 0.00 0.00 51 1006.3
20260503200316 75 300 1.0 4.0 0.00 0.00 0.00 55 1006.3
20260503195346 75 306 0.0 6.0 0.00 0.00 0.00 60 1006.6
20260503194338 75 267 2.0 7.0 0.00 0.00 0.00 58 1006.7
20260503193351 74 311 1.0 5.0 0.00 0.00 0.00 62 1006.7
20260503192320 74 213 1.0 5.0 0.00 0.00 0.00 64 1006.8
20260503191331 74 209 0.0 0.0 0.00 0.00 0.00 63 1007.1
20260503190323 72 286 0.0 4.0 0.00 0.00 0.00 68 1007.1
20260503185334 71 282 1.0 3.0 0.00 0.00 0.00 65 1007.2
20260503184325 69 51 0.0 3.0 0.00 0.00 0.00 68 1007.3
20260503183319 69 105 0.0 0.0 0.00 0.00 0.00 69 1007.3
20260503182330 68 105 0.0 0.0 0.00 0.00 0.00 73 1007.4
20260503181319 67 105 0.0 0.0 0.00 0.00 0.00 71 1007.6
20260503180331 67 105 0.0 3.0 0.00 0.00 0.00 72 1007.6
20260503175322 67 32 2.0 4.0 0.00 0.00 0.00 73 1007.7
20260503174316 66 106 0.0 4.0 0.00 0.00 0.00 75 1007.7
20260503173352 65 85 0.0 3.0 0.00 0.00 0.00 76 1007.7
20260503172319 64 85 0.0 5.0 0.00 0.00 0.00 76 1007.8
20260503171331 64 53 0.0 0.0 0.00 0.00 0.00 77 1008.0
20260503170324 63 55 0.0 0.0 0.00 0.00 0.00 78 1008.0
20260503150343 52 47 0.0 0.0 0.00 0.00 0.00 99 1008.5
20260503131328 50 277 0.0 0.0 0.00 0.00 0.00 99 1007.9
20260503130324 50 277 0.0 0.0 0.00 0.00 0.00 99 1007.9
20260503110328 50 277 0.0 0.0 0.00 0.00 0.00 97 1007.9
20260503090330 52 277 0.0 0.0 0.00 0.00 0.00 95 1008.0
20260503081338 53 277 0.0 0.0 0.00 0.00 0.00 94 1007.9
20260503080334 54 277 0.0 0.0 0.00 0.00 0.00 94 1007.9
20260503072320 55 277 0.0 0.0 0.00 0.00 0.00 93 1007.8
20260503071331 55 277 0.0 0.0 0.00 0.00 0.00 93 1007.7
20260503070326 55 277 0.0 0.0 0.00 0.00 0.00 93 1007.7
20260503060332 58 277 0.0 0.0 0.00 0.00 0.00 90 1007.4
20260503054335 59 277 0.0 0.0 0.00 0.00 0.00 88 1007.5
20260503053347 59 277 0.0 0.0 0.00 0.00 0.00 87 1007.5
20260503052317 60 277 0.0 0.0 0.00 0.00 0.00 86 1007.5
20260503051351 60 277 0.0 0.0 0.00 0.00 0.00 84 1007.3
20260503050324 61 277 0.0 0.0 0.00 0.00 0.00 84 1007.3
20260503045321 62 277 0.0 0.0 0.00 0.00 0.00 84 1007.3
20260503044334 62 277 0.0 0.0 0.00 0.00 0.00 81 1007.3
20260503043330 62 277 0.0 0.0 0.00 0.00 0.00 81 1007.3
20260503042321 63 277 0.0 0.0 0.00 0.00 0.00 80 1006.7
20260503041315 64 277 0.0 0.0 0.00 0.00 0.00 78 1006.7
20260503040350 65 277 0.0 3.0 0.00 0.00 0.00 76 1006.7
20260503035327 66 277 0.0 0.0 0.00 0.00 0.00 74 1006.7
20260503034337 66 277 0.0 0.0 0.00 0.00 0.00 72 1006.7
20260503033331 66 277 0.0 0.0 0.00 0.00 0.00 70 1006.7
20260503032322 67 277 0.0 0.0 0.00 0.00 0.00 69 1006.8
20260503031321 67 277 0.0 0.0 0.00 0.00 0.00 68 1006.8
20260503030336 68 277 0.0 0.0 0.00 0.00 0.00 67 1006.8
20260503025325 69 277 0.0 0.0 0.00 0.00 0.00 67 1006.6
20260503024316 70 277 0.0 0.0 0.00 0.00 0.00 64 1006.7
20260503023334 70 277 0.0 0.0 0.00 0.00 0.00 64 1006.7
20260503022327 71 277 1.0 3.0 0.00 0.00 0.00 60 1006.4
20260503021325 71 13 0.0 6.0 0.00 0.00 0.00 60 1006.6
20260503020343 71 351 0.0 5.0 0.00 0.00 0.00 60 1006.6
20260503015354 72 15 0.0 2.0 0.00 0.00 0.00 63 1006.6
20260503014325 72 17 0.0 4.0 0.00 0.00 0.00 57 1006.6
20260503013321 72 65 0.0 4.0 0.00 0.00 0.00 58 1006.6
20260503012335 72 50 0.0 2.0 0.00 0.00 0.00 58 1006.6
20260503011332 71 51 0.0 3.0 0.00 0.00 0.00 60 1006.7
20260503010348 73 5 0.0 1.0 0.00 0.00 0.00 60 1006.7